Regional Weather Roundup
Issued by NWS

Home | Current Version | Previous Version | Graphics & Text | Print | Product List | Glossary Off
Versions: 1 2 3 4 5 6 7 8 9 10 11 12 13 14 15 16 17 18 19 20 21 22 23 24 25 26 27 28 29 30 31 32 33 34 35 36 37 38 39 40 41 42 43 44 45 46 47 48 49 50

000
ASUS43 KIND 282109
RWRIN

WEATHER ROUNDUP FOR INDIANA
NATIONAL WEATHER SERVICE INDIANAPOLIS IN
500 PM EDT THU APR 28 2016

NOTE: "FAIR" INDICATES FEW OR NO CLOUDS BELOW 12,000 FEET WITH NO
SIGNIFICANT WEATHER AND/OR OBSTRUCTIONS TO VISIBILITY.

* - STATION DOES NOT REPORT WEATHER SUCH AS PRECIPITATION OR FOG.

+ - STATION NOT QUALITY CONTROLLED BY THE NATIONAL WEATHER SERVICE.
    USE DATA WITH CAUTION...ESPECIALLY DEWPOINT AND RELATIVE
    HUMIDITY OBSERVATIONS.

INZ001>003-010>013-019-020-282200-
NORTHWEST INDIANA

CITY           SKY/WX    TMP DP  RH WIND       PRES   REMARKS
GARY /AIRPORT/ CLOUDY    50  48  93 N9        29.92R
KNOX *+        CLOUDY    55  43  62 E5        29.89R
LA PORTE +     CLOUDY    56  49  79 E7        29.90R
MICHIGAN CITY+ CLOUDY    54  46  76 SE6       29.90R
MONTICELLO +   CLOUDY    58  50  73 NW3       29.87R
RENSSELAER +   CLOUDY    57  54  88 N3        29.89R
VALPARAISO     CLOUDY    55  48  77 NE3       29.90R

$$

LMZ046-743>745-282200-
SOUTHERN LAKE MICHIGAN

STATION/POSITION TIME  TEMP    WIND        PRES    WAVE
                       AIR SEA DIR/SP/G            HT
                 (UTC) (F)     (DEG/KT/KT) (MB)    (FT)
BURNS HARBOR     2010   47      30/ 11/ 14 1012.9R
MICHIGAN CITY    2000   47      10/ 12/ 13   N/A

$$

INZ004-005-014>016-021>024-282200-
NORTH CENTRAL INDIANA

CITY           SKY/WX    TMP DP  RH WIND       PRES   REMARKS
ELKHART        CLOUDY    54  48  82 E7        29.91S
GOSHEN         CLOUDY    53  46  77 E12       29.90S
LOGANSPORT +   CLOUDY    55  52  88 NE5       29.88R
PERU/GRISSOM   CLOUDY    55  51  86 E9        29.86R
ROCHESTER +    CLOUDY    55  52  88 E9        29.89R
SOUTH BEND     CLOUDY    52  45  77 E8        29.90F
WARSAW +       CLOUDY    52  48  87 E8        29.89F

$$

INZ006>009-017-018-025>027-282200-
NORTHEAST INDIANA

CITY           SKY/WX    TMP DP  RH WIND       PRES   REMARKS
ANGOLA *+      CLOUDY    50  39  66 E10       29.92R
AUBURN +       CLOUDY    52  43  71 E6        29.92R
FORT WAYNE     PTSUNNY   53  47  79 E18       29.90F
HUNTINGTON +   CLOUDY   N/A N/A N/A E10       29.88S

$$

INZ028-029-035-036-043>045-051>053-282200-
WEST CENTRAL INDIANA

CITY           SKY/WX    TMP DP  RH WIND       PRES   REMARKS
CRAWFORDSVL +  CLOUDY    64  59  84 NW10      29.86R
GREENCASTLE +  MOSUNNY   72  55  56 W9        29.85R
LAFAYETTE      PTSUNNY   61  54  77 N7        29.87R
TERRE HAUTE    PTSUNNY   72  51  47 W13       29.85

$$

INZ030>032-037>040-046>048-054>057-064-065-282200-
CENTRAL INDIANA

CITY           SKY/WX    TMP DP  RH WIND       PRES   REMARKS
CP ATTERBURY + SUNNY     73  50  43 W15G23    29.82R
COLUMBUS       MOSUNNY  N/A N/A N/A SW16      29.81R
FISHERS *+     PTSUNNY   63  59  88 N5        29.85
FRANKFORT +      N/A     64  49  58 N5        29.88R
GREENWOOD *+   MOSUNNY   72  54  53 W15G22    29.83R
INDIANAPOLIS   PTSUNNY   68  58  70 NW16      29.83R
-EAGLE CREEK   PTSUNNY   69  58  67 NW16G24   29.83R
KOKOMO *+      CLOUDY    55  48  76 NE10      29.87R
MARION +       CLOUDY    55  50  83 E13       29.86S HAZE
SHELBYVILLE    MOSUNNY   75  57  53 W16G26    29.80S
ZIONSVILLE +   CLOUDY    61  58  90 N7        29.86R

$$

INZ033-034-041-042-049-050-058-059-282200-
EAST CENTRAL INDIANA

CITY           SKY/WX    TMP DP  RH WIND       PRES   REMARKS
MUNCIE         CLOUDY    58  52  80 NE10      29.86R

$$

INZ060-061-067>069-081>083-085>088-282200-
SOUTHWEST INDIANA

CITY           SKY/WX    TMP DP  RH WIND       PRES   REMARKS
EVANSVILLE     MOSUNNY   75  50  41 W15G24    29.88R
HUNTINGBURG *+ MOSUNNY   73  52  46 W13       29.87S
WASHINGTON +   PTSUNNY   74  55  51 SW12      29.86S

$$

INZ062-063-066-070>080-084-089>092-282200-
SOUTH CENTRAL AND SOUTHEAST INDIANA

CITY           SKY/WX    TMP DP  RH WIND       PRES   REMARKS
BEDFORD +      SUNNY     73  61  64 SW8G18    29.85R
BLOOMINGTON    PTSUNNY   72  50  45 W12G23    29.86R
MADISON *+     MOSUNNY   75  48  38 SW13G23   29.84R
NORTH VERNON + MOSUNNY   75  57  53 SW17      29.83R
SEYMOUR +      MOSUNNY   77  52  41 SW18G28   29.82R

$$





USA.gov is the U.S. government's official web portal to all federal, state and local government web resources and services.